LAPAN-A3 (41603 NORAD) Tracking and Keplerian Element Data

This shows tracking and keplerian element data for the satellite.

Feedback or suggestion? Click here.




ElementValue
Catalog41603
NameLAPAN-A3
Epoch Orbit24022
Epoch Day295.08909583
Epoch Year2020
RAAN344.5951
Inclination97.2944
Eccentricity0.0014908
Argument of Perigee118.5846
Mean Anonmoly325.902
Mean Motion15.19884597
Decay Rate6.5E-07
L11 41603U 16040E 20295.08909583 .00000065 00000-0 61097-5 0 9994
L22 41603 97.2944 344.5951 0014908 118.5846 325.9020 15.19884597240225

Live tracking and technical data element details for LAPAN-A3 (NORAD 41603). LAPAN-A3 can be tracked NOW for your location showing map with azimuth and elevation plus other details from your city location.

Track the satellite on the map from your city or location and see movement details for azimuth, elevation, latitude, longitude, range, height, and movement on the map or in text.







IsCatalogInMostPopularTable: catalog: 41603, numindb: 384
Update: records affected: 1



GetName: 41603 LAPAN-A3

Hit Count: updated at: Thu, 22 Oct 2020 03:20:36 GMT